Location: Spruce Knob
(38.6995°N, 79.5330°W)
Time: 11:30:18
(UTC-05:00)

Envisat - Pass Details

Date: 05 December 2021
Orbit: 764 x 766 km, 98.2° (Epoch: 23 January)

Event Time Altitude Azimuth Distance (km) Brightness Sun altitude
Rises 17:50:43 0° 214° (SSW) 3,216 7.2 -10.5°
Reaches altitude 10° 17:54:14 10° 240° (WSW) 2,296 7.0 -11.1°
Maximum altitude 17:56:44 14° 269° (W) 2,054 6.4 -11.6°
Drops below altitude 10° 17:59:14 10° 299° (WNW) 2,304 6.1 -12.0°
Sets 18:02:47 0° 325° (NW) 3,237 6.5 -12.7°
